Hourly Weather Roundup
Issued by NWS Central Illinois

Home | Current Version | Previous Version | Text Only | Print | Product List | Glossary On
Versions: 1 2 3 4 5 6 7 8 9 10 11 12 13 14 15 16 17 18 19 20 21 22 23 24 25 26 27 28 29 30 31 32 33 34 35 36 37 38 39 40 41 42 43 44 45 46 47 48 49 50
000
NZUS43 KILX 230310
HWRILX

AREA WEATHER ROUNDUP
NATIONAL WEATHER SERVICE, LINCOLN IL
1000 PM CDT FRI MAY 22 2015


CITY           SKY/WX    TMP DP  RH WIND       PRES   REMARKS
BLOOMINGTON    CLOUDY    65  44  46 E12       30.26R
CHAMPAIGN      CLOUDY    67  44  43 SW5       30.25R
DANVILLE       CLOUDY    63  40  43 E5        30.24R
DECATUR        CLOUDY    68  47  46 SW7       30.25R
EFFINGHAM      CLOUDY    63  49  59 CALM      30.28R
FLORA          CLOUDY    62  55  76 SW3       30.28R
GALESBURG      CLOUDY    64  46  50 S5        30.23R
JACKSONVILLE   CLOUDY    68  54  60 W3        30.25S
LACON          CLOUDY    66  43  44 E12       30.23R
LAWRENCEVILLE  CLOUDY    63  55  75 S3        30.27R
LITCHFIELD     CLOUDY    64  55  73 CALM      30.26S
$$


CITY           SKY/WX    TMP DP  RH WIND       PRES   REMARKS
LINCOLN        CLOUDY    67  45  44 CALM      30.23R
MACOMB         CLOUDY    63  51  63 SW6       30.26R
MATTOON        CLOUDY    66  47  50 SW8       30.25R
MT CARMEL AP   CLOUDY    64  50  59 CALM      30.26R
OLNEY-NOBLE AP MOCLDY    61  52  72 CALM      30.27R
PARIS          CLOUDY    66  51  57 S6        30.26R
PEORIA         CLOUDY    70  42  36 SW5       30.24R
PONTIAC        CLOUDY    64  39  40 E9        30.26R
RANTOUL        CLOUDY    67  40  37 E10       30.26R
ROBINSON       CLOUDY    64  52  65 CALM      30.27R
SPRINGFIELD    CLOUDY    68  49  50 W5        30.25R
TAYLORVILLE    CLOUDY    63  50  63 SW5       30.26R
$$

...REGIONAL REPORTS...


CITY           SKY/WX    TMP DP  RH WIND       PRES   REMARKS
CHICAGO O`HARE CLOUDY    53  29  39 E7        30.28R
KANKAKEE       CLOUDY    56  42  57 CALM      30.28R
MOLINE         CLOUDY    60  48  64 SW5       30.22R
MOUNT VERNON   CLOUDY    55  50  82 CALM      30.29R
PITTSFIELD     CLOUDY    66  51  58 W3        30.26S
QUINCY         CLOUDY    64  53  67 S3        30.25S
ROCKFORD       CLOUDY    58  34  40 E5        30.29R
$$


CITY           SKY/WX    TMP DP  RH WIND       PRES   REMARKS
BURLINGTON     CLOUDY    65  54  67 W7        30.23R
CEDAR RAPIDS   CLOUDY    63  44  50 CALM      30.21R
DES MOINES     CLOUDY    64  47  53 S3        30.22R
KIRKSVILLE     MOCLDY    58  55  90 CALM      30.24R
OTTUMWA        CLOUDY    63  52  67 S3        30.22S
ST LOUIS       CLOUDY    66  50  56 CALM      30.26R
$$


CITY           SKY/WX    TMP DP  RH WIND       PRES   REMARKS
TERRE HAUTE    CLOUDY    64  52  64 S5        30.26R
EVANSVILLE     MOCLDY    65  54  67 CALM      30.28R
INDIANAPOLIS   PTCLDY    64  43  46 CALM      30.26R
LAFAYETTE      PTCLDY    58  37  45 NE7       30.27R
MADISON        CLOUDY    60  37  42 SE12      30.25R
MILWAUKEE      MOCLDY    48  29  47 SE6       30.29S
$$




USA.gov is the U.S. government's official web portal to all federal, state and local government web resources and services.